Location: Minneapolis
(45.0000°N, 93.0000°W)
Time: 03:45:00

Humanity Star - Pass Details

Date: 12 March 2018
Orbit: 228 x 260 km, 82.9° (Epoch: 20 March)

Event Time Altitude Azimuth Distance (km) Brightness Sun altitude
Rises 20:00:09 0° 182° (S) 1,928 8.4 -8.9°
Reaches altitude 10° 20:02:00 10° 180° (S) 1,118 7.2 -9.3°
Maximum altitude 20:04:22 67° 97° (E) 314 4.1 -9.7°
Drops below altitude 10° 20:06:47 10° 13° (NNE) 1,138 7.2 -10.1°
Sets 20:08:41 0° 11° (N) 1,968 8.4 -10.4°
